Temp
68 66 64 64 54 50 47 51 57 59 62 65 68 67 68 70 67 64 70 73 74 75 78 79 77 78 78 78 78 77 77 77 76 76 76 76 76 76 75 75 75 75 74 74 74 74 74 74 75
66 66 62 57 47 42 44 53 55 60 62 65 69 68 67 68 69 68 67 72 75 75 78 79 77 78 78 78 77 76 77 76 76 76 76 76 75 75 75 74 74 74 73 73 73 73 74 74 74
67 64 56 52 45 42 44 53 58 59 62 64 66 69 68 68 68 70 74 73 75 76 77 78 77 77 77 77 77 76 76 76 75 75 75 75 75 75 74 74 73 73 73 72 73 73 74 74 74
62 60 55 46 42 46 48 55 53 58 63 65 64 62 69 71 69 74 73 74 74 75 77 77 76 77 77 76 76 76 76 75 75 75 74 74 74 74 73 73 72 72 72 72 73 73 73 74 74
58 54 44 41 40 46 51 55 56 55 57 60 62 62 65 69 71 73 72 74 73 75 77 77 76 77 76 76 75 75 75 75 75 74 74 74 74 73 72 72 72 72 73 73 73 73 73 73 73
51 51 40 37 40 46 51 55 55 55 56 59 60 60 65 69 69 70 72 73 75 75 76 77 75 76 75 75 75 75 75 74 74 74 74 73 73 73 72 72 73 73 73 73 73 73 73 73 73
48 45 39 39 39 43 51 57 54 55 54 58 62 57 66 67 69 70 71 74 75 76 74 76 77 75 73 73 74 74 74 74 73 73 73 72 72 72 73 73 73 73 73 73 73 73 73 73 72
50 47 39 40 40 42 52 54 57 55 55 63 64 57 60 66 69 69 71 73 74 74 73 74 75 73 73 75 72 72 72 72 72 72 71 70 69 70 72 71 72 73 73 73 73 73 73 72 71
54 42 37 40 41 45 53 51 56 61 57 59 62 64 68 69 69 66 67 71 71 70 70 70 71 70 73 74 72 71 70 70 69 68 66 66 70 70 69 68 69 71 72 72 72 72 71 69 68
48 40 41 48 49 48 52 51 54 54 55 55 58 65 66 69 65 64 64 65 68 67 66 68 70 69 71 72 72 72 71 70 69 68 67 66 66 67 68 67 68 70 70 70 70 69 67 67 70
47 41 46 49 52 52 51 51 55 52 49 55 55 60 63 64 63 64 64 66 68 67 66 68 68 68 69 68 68 68 66 66 66 65 65 65 65 65 66 65 66 66 63 66 67 67 67 68 68
42 47 49 50 52 51 49 53 51 53 54 60 61 62 60 62 64 63 63 64 67 65 66 67 66 67 66 67 67 66 65 64 64 64 64 63 63 63 64 64 63 64 64 65 66 66 66 66 67
43 46 49 50 50 50 51 48 50 51 57 60 60 59 59 61 64 64 65 65 65 64 65 64 64 65 65 65 64 64 64 64 63 62 63 63 62 62 63 62 63 62 64 65 64 65 65 66 66
46 46 46 48 48 49 47 49 49 52 57 56 57 57 59 61 64 64 64 63 64 65 64 64 63 64 63 63 63 63 63 62 62 62 62 61 62 61 61 61 61 61 63 63 64 65 65 64 66
46 40 44 46 49 48 49 45 44 54 55 53 56 58 59 60 63 63 65 63 65 64 64 62 62 62 62 61 61 62 62 62 62 62 62 61 61 62 61 60 60 60 61 61 62 62 62 62 63
41 41 36 47 48 50 48 40 50 55 53 53 55 56 57 59 62 64 64 65 64 64 63 63 64 62 62 60 59 60 61 61 62 62 62 61 61 61 61 60 61 61 61 61 61 61 60 61 63
38 33 35 39 47 46 46 42 51 54 53 52 55 55 55 57 59 62 63 63 64 64 62 60 62 60 60 58 58 59 59 61 62 61 61 61 61 61 60 59 60 61 60 61 61 59 60 60 60
30 33 34 35 43 44 42 41 48 52 51 52 54 53 53 54 57 61 62 63 61 61 61 58 55 58 60 58 57 57 57 59 59 60 61 61 60 61 60 59 58 59 58 58 59 58 57 59 60
38 34 33 39 45 40 40 42 46 50 49 50 51 51 51 53 59 60 62 63 62 61 61 56 54 53 56 57 56 56 56 56 57 59 60 61 61 60 59 57 57 57 58 58 58 57 56 55 58
37 34 34 39 43 42 40 40 47 47 48 49 50 50 50 53 56 58 59 60 61 60 59 56 54 53 53 58 58 58 57 56 58 59 59 60 60 59 59 58 57 56 56 57 58 57 54 54 55
36 34 34 36 40 41 40 39 41 47 48 50 50 51 51 52 54 56 58 60 60 59 57 56 54 54 54 55 55 55 55 55 56 56 58 59 60 59 58 58 57 56 56 56 56 57 56 53 52
34 40 39 37 35 29 39 29 37 43 46 48 49 49 49 50 53 55 57 60 60 59 57 56 55 55 55 55 55 56 58 56 56 57 58 58 60 59 58 56 56 56 55 55 55 55 55 55 52
38 42 40 38 35 32 34 29 38 41 45 49 51 51 51 50 51 53 57 59 60 58 57 56 56 55 56 55 56 54 55 54 54 55 55 56 57 57 56 56 56 55 54 53 54 54 54 54 53
43 40 37 35 33 27 32 32 35 39 45 46 49 49 50 50 51 52 57 58 58 58 56 56 56 56 56 56 58 56 54 53 53 54 54 54 55 55 56 55 55 54 53 52 51 52 51 51 51
40 34 27 24 23 28 33 30 36 44 46 47 47 48 49 50 51 52 54 57 57 56 56 55 55 55 55 55 55 56 55 54 55 54 54 53 53 53 53 54 54 52 52 51 50 51 50 51 51
36 36 27 21 23 27 34 28 37 46 47 47 47 47 48 50 51 51 55 57 59 58 57 56 55 56 56 56 55 56 56 54 53 53 52 53 53 53 54 53 53 51 50 50 49 49 49 50 49
36 32 37 31 27 25 32 37 43 45 47 48 47 47 47 49 53 52 55 57 59 57 57 56 56 56 55 55 55 55 55 54 52 51 52 52 51 51 52 50 50 50 49 49 49 49 48 49 47
39 41 31 29 22 22 28 31 34 39 46 47 47 47 47 49 52 54 55 57 58 57 56 57 57 56 56 55 55 55 53 53 52 51 50 50 49 49 48 47 47 46 47 48 48 47 47 46 45
35 33 34 33 30 25 23 29 41 42 45 45 47 47 47 48 50 54 56 56 57 56 56 55 56 55 55 55 55 54 53 53 53 52 50 49 48 47 45 45 45 45 47 47 47 47 46 45 45
36 35 34 29 28 28 27 29 49 46 45 45 46 49 48 48 50 54 55 54 55 55 55 55 55 55 55 56 55 54 53 53 52 51 49 48 46 46 45 46 46 46 46 46 46 46 45 44 44
MSLP
1015.02 1014.98 1014.93 1014.93 1015.83 1015.70 1014.68 1013.95 1013.32 1012.42 1011.60 1011.27 1010.80 1010.26 1009.62 1009.18 1009.31 1009.71 1009.36 1009.53 1009.67 1010.02 1010.34 1010.96 1011.62 1012.16 1012.57 1013.13 1013.59 1014.05 1014.36 1014.70 1015.20 1015.50 1015.72 1015.91 1016.10 1016.33 1016.59 1016.83 1017.04 1017.26 1017.48 1017.65 1017.78 1017.94 1018.06 1018.14 1018.22
1015.11 1014.92 1015.17 1015.64 1016.13 1016.02 1015.37 1014.33 1013.41 1012.43 1011.92 1011.29 1010.43 1009.97 1009.74 1008.98 1009.00 1009.15 1009.56 1009.67 1009.72 1009.99 1010.38 1010.84 1011.51 1012.03 1012.53 1013.09 1013.56 1014.10 1014.41 1014.93 1015.29 1015.63 1015.82 1015.99 1016.23 1016.49 1016.76 1017.03 1017.28 1017.52 1017.73 1017.91 1018.06 1018.21 1018.30 1018.35 1018.43
1015.23 1015.34 1015.80 1016.14 1016.49 1015.99 1015.23 1014.37 1013.58 1013.01 1012.45 1011.72 1010.76 1010.10 1009.69 1009.13 1009.10 1009.00 1009.05 1009.55 1009.88 1010.17 1010.47 1010.84 1011.42 1011.94 1012.52 1013.03 1013.55 1014.09 1014.51 1015.02 1015.36 1015.69 1015.94 1016.14 1016.40 1016.67 1017.00 1017.32 1017.57 1017.78 1017.97 1018.15 1018.31 1018.41 1018.47 1018.57 1018.64
1015.63 1015.97 1016.97 1016.86 1016.35 1015.98 1015.26 1014.48 1014.48 1013.55 1012.54 1012.10 1011.66 1010.59 1009.76 1009.18 1009.17 1008.90 1009.34 1009.55 1010.08 1010.40 1010.58 1010.96 1011.38 1011.93 1012.48 1013.07 1013.70 1014.17 1014.61 1015.04 1015.43 1015.76 1016.09 1016.35 1016.55 1016.88 1017.18 1017.55 1017.79 1018.00 1018.17 1018.36 1018.49 1018.55 1018.71 1018.82 1018.87
1016.20 1016.77 1017.36 1017.45 1016.95 1016.23 1015.63 1015.10 1014.66 1014.05 1013.45 1012.57 1012.20 1010.76 1009.94 1009.26 1009.27 1009.18 1009.56 1009.59 1009.94 1010.59 1010.80 1011.06 1011.48 1011.99 1012.45 1013.12 1013.80 1014.26 1014.68 1015.11 1015.44 1015.88 1016.18 1016.54 1016.80 1017.09 1017.39 1017.66 1017.88 1018.04 1018.24 1018.46 1018.61 1018.72 1018.91 1019.03 1019.17
1016.88 1017.49 1018.02 1018.03 1017.27 1016.58 1015.82 1015.12 1014.81 1014.24 1013.53 1012.75 1012.17 1011.60 1010.09 1009.57 1009.44 1009.48 1009.49 1009.94 1009.95 1010.41 1010.95 1011.13 1011.77 1012.15 1012.57 1013.36 1013.94 1014.33 1014.77 1015.18 1015.58 1015.98 1016.28 1016.63 1017.02 1017.29 1017.57 1017.76 1017.96 1018.12 1018.34 1018.50 1018.72 1018.91 1019.09 1019.24 1019.42
1017.24 1017.93 1018.27 1018.06 1017.38 1016.64 1015.53 1014.82 1014.58 1014.16 1013.68 1012.73 1012.17 1011.59 1010.14 1009.91 1009.88 1009.88 1009.62 1009.94 1010.21 1010.27 1010.90 1011.21 1011.83 1012.25 1012.95 1013.59 1014.04 1014.43 1014.85 1015.33 1015.74 1016.09 1016.47 1016.82 1017.16 1017.40 1017.60 1017.88 1018.09 1018.22 1018.44 1018.67 1018.90 1019.03 1019.17 1019.40 1019.72
1017.65 1018.09 1018.28 1017.91 1017.24 1016.35 1015.38 1014.89 1014.56 1014.15 1013.40 1012.78 1012.06 1011.17 1010.52 1010.15 1010.14 1010.08 1010.02 1009.96 1010.20 1010.53 1010.90 1011.36 1011.84 1012.30 1013.07 1013.76 1014.14 1014.62 1014.93 1015.49 1015.91 1016.26 1016.70 1017.05 1017.40 1017.55 1017.77 1017.97 1018.22 1018.35 1018.54 1018.77 1019.04 1019.24 1019.39 1019.66 1019.98
1017.77 1018.37 1018.05 1017.59 1016.98 1016.00 1015.47 1015.17 1014.72 1014.12 1013.55 1012.86 1012.07 1010.97 1010.40 1010.20 1010.01 1010.18 1009.97 1010.09 1010.32 1010.68 1011.21 1011.51 1011.89 1012.53 1013.32 1013.82 1014.28 1014.73 1015.15 1015.64 1016.08 1016.57 1016.95 1017.34 1017.68 1017.91 1018.13 1018.22 1018.36 1018.54 1018.76 1018.98 1019.28 1019.50 1019.76 1020.09 1020.40
1018.15 1018.54 1017.68 1016.86 1016.32 1015.78 1015.37 1015.16 1014.71 1014.30 1013.40 1012.70 1012.01 1011.04 1010.49 1010.13 1009.88 1009.85 1009.52 1009.66 1009.91 1010.51 1011.13 1011.56 1011.97 1012.69 1013.48 1013.95 1014.39 1014.78 1015.31 1015.80 1016.29 1016.74 1017.09 1017.68 1018.09 1018.34 1018.43 1018.55 1018.59 1018.78 1019.06 1019.29 1019.63 1019.91 1020.29 1020.39 1020.63
1018.12 1018.03 1017.33 1016.46 1015.94 1015.58 1015.18 1014.67 1014.55 1013.93 1013.05 1012.59 1011.80 1011.01 1010.48 1010.46 1010.16 1009.64 1009.40 1009.59 1009.48 1010.21 1010.99 1011.61 1012.09 1012.73 1013.32 1013.96 1014.51 1015.06 1015.61 1016.07 1016.65 1016.98 1017.33 1017.79 1018.23 1018.58 1018.84 1019.03 1019.23 1019.31 1019.51 1019.72 1019.96 1020.21 1020.47 1020.65 1020.87
1018.14 1017.31 1017.11 1016.15 1015.64 1015.41 1014.93 1014.45 1013.93 1013.35 1012.48 1011.76 1011.18 1010.66 1010.37 1010.10 1009.79 1009.49 1009.36 1009.49 1009.71 1010.14 1010.74 1011.53 1012.20 1012.92 1013.34 1014.04 1014.46 1015.17 1015.71 1016.29 1016.68 1017.17 1017.38 1017.74 1018.30 1018.70 1019.03 1019.33 1019.53 1019.64 1019.73 1019.86 1020.08 1020.26 1020.62 1020.85 1021.05
1017.98 1017.08 1016.53 1016.00 1015.55 1015.09 1014.74 1013.98 1013.53 1012.70 1011.56 1010.91 1010.80 1010.46 1010.04 1009.81 1009.20 1008.84 1009.07 1008.86 1008.53 1009.88 1010.46 1011.23 1012.21 1012.92 1013.42 1014.02 1014.59 1015.26 1015.78 1016.32 1016.73 1017.24 1017.41 1017.74 1018.30 1018.72 1019.10 1019.59 1019.72 1019.92 1019.97 1019.99 1020.27 1020.49 1020.61 1020.96 1021.21
1017.65 1017.11 1016.26 1015.42 1014.84 1014.66 1014.18 1013.21 1013.15 1011.29 1010.68 1010.53 1010.22 1009.71 1009.51 1009.30 1008.73 1008.29 1008.32 1008.65 1008.29 1009.59 1010.34 1010.89 1012.03 1012.86 1013.51 1014.14 1014.76 1015.29 1015.92 1016.47 1016.89 1017.31 1017.53 1017.70 1018.15 1018.72 1019.11 1019.65 1019.98 1020.18 1020.20 1020.31 1020.44 1020.68 1020.80 1021.13 1021.35
1017.54 1017.28 1015.92 1015.03 1014.66 1014.24 1013.77 1012.95 1012.22 1010.65 1010.65 1010.15 1009.55 1009.07 1008.84 1008.67 1008.36 1007.73 1007.73 1007.97 1008.53 1007.93 1010.07 1010.59 1011.78 1012.62 1013.50 1014.26 1015.00 1015.42 1016.02 1016.60 1017.03 1017.35 1017.63 1017.82 1018.13 1018.59 1018.97 1019.71 1020.09 1020.41 1020.64 1020.66 1020.87 1021.09 1021.28 1021.52 1021.78
1017.70 1017.51 1016.43 1014.77 1014.54 1013.84 1013.78 1012.18 1011.15 1010.45 1010.33 1009.76 1009.24 1008.67 1008.43 1008.14 1007.89 1007.62 1007.95 1007.52 1007.32 1007.97 1009.31 1010.30 1011.55 1012.33 1013.21 1014.07 1014.98 1015.58 1016.09 1016.71 1017.10 1017.54 1017.71 1017.89 1018.19 1018.68 1019.06 1019.52 1020.02 1020.44 1020.65 1020.78 1020.89 1021.12 1021.36 1021.75 1021.96
1018.04 1017.78 1016.83 1015.40 1014.31 1013.97 1013.55 1011.74 1010.12 1009.94 1009.78 1009.28 1008.73 1008.24 1007.99 1007.78 1007.55 1007.16 1007.61 1008.27 1007.97 1008.68 1009.24 1010.01 1011.64 1012.53 1013.26 1014.15 1014.89 1015.60 1016.14 1016.52 1017.07 1017.62 1017.87 1018.02 1018.24 1018.65 1019.04 1019.53 1019.96 1020.30 1020.64 1020.82 1020.97 1021.36 1021.51 1021.88 1022.32
1018.14 1017.87 1017.01 1015.97 1014.51 1013.92 1013.00 1011.17 1009.53 1009.14 1009.22 1008.66 1008.15 1007.88 1007.61 1007.40 1006.99 1006.84 1006.53 1007.45 1007.70 1007.65 1009.07 1010.21 1011.48 1013.27 1013.68 1014.43 1015.15 1015.84 1016.45 1016.58 1016.95 1017.46 1017.80 1018.21 1018.44 1018.70 1019.08 1019.61 1020.12 1020.34 1020.66 1020.98 1021.16 1021.36 1021.86 1022.09 1022.40
1017.74 1017.69 1016.98 1015.45 1014.46 1013.96 1012.26 1010.89 1009.13 1008.22 1008.31 1008.02 1007.85 1007.70 1007.48 1007.01 1006.54 1006.65 1006.54 1006.65 1007.11 1007.63 1008.53 1010.21 1011.17 1013.09 1014.83 1015.16 1015.59 1016.12 1016.36 1016.78 1017.24 1017.32 1017.58 1018.09 1018.49 1018.73 1019.15 1019.78 1020.23 1020.60 1020.65 1020.83 1021.27 1021.67 1021.96 1022.54 1022.67
1017.55 1017.27 1016.29 1014.96 1014.27 1013.98 1012.18 1010.44 1008.87 1008.08 1007.63 1007.34 1007.29 1007.16 1007.20 1007.00 1006.60 1006.53 1006.54 1007.08 1007.45 1007.91 1008.81 1010.10 1010.79 1011.50 1013.32 1016.30 1015.85 1016.02 1016.38 1017.06 1017.25 1017.43 1017.45 1017.88 1018.45 1018.76 1019.10 1019.61 1020.07 1020.41 1020.88 1020.85 1021.08 1021.44 1021.98 1022.59 1022.76
1016.89 1016.68 1015.91 1015.47 1014.33 1013.52 1012.73 1010.32 1009.03 1008.16 1007.77 1007.14 1006.97 1006.95 1007.01 1006.79 1006.38 1006.26 1006.57 1006.74 1007.51 1008.05 1008.63 1009.04 1009.46 1011.02 1011.42 1014.80 1015.89 1016.14 1016.76 1016.90 1017.45 1017.66 1017.67 1017.95 1018.43 1018.84 1019.08 1019.51 1019.92 1020.27 1020.75 1020.92 1021.11 1021.50 1021.70 1022.35 1023.06
1016.25 1015.36 1015.42 1015.22 1015.11 1014.89 1013.89 1012.30 1009.60 1008.46 1007.37 1007.21 1007.02 1006.78 1006.76 1006.52 1006.41 1006.14 1006.22 1006.38 1006.95 1007.62 1008.73 1009.57 1009.99 1010.50 1010.50 1012.64 1014.53 1015.75 1016.18 1016.56 1016.84 1017.25 1017.54 1017.89 1018.41 1018.87 1019.30 1019.76 1020.16 1020.44 1020.81 1021.11 1021.24 1021.47 1021.86 1022.05 1022.62
1015.12 1014.93 1015.16 1015.12 1015.21 1015.13 1014.31 1013.70 1009.60 1008.69 1007.65 1006.91 1006.70 1006.85 1006.80 1006.44 1006.28 1006.08 1005.99 1006.06 1006.32 1007.25 1008.14 1009.08 1009.64 1010.34 1010.93 1011.30 1011.99 1014.42 1015.77 1016.40 1016.77 1017.15 1017.57 1017.84 1018.44 1018.88 1019.45 1019.84 1020.26 1020.80 1021.05 1021.36 1021.51 1021.61 1021.95 1022.19 1022.58
1014.88 1014.97 1015.10 1015.26 1015.28 1015.01 1013.94 1013.53 1010.28 1008.63 1007.68 1007.06 1006.55 1006.70 1006.82 1006.41 1005.98 1005.86 1005.86 1006.12 1006.59 1007.23 1007.85 1008.74 1009.50 1010.03 1010.63 1010.95 1010.90 1011.56 1014.06 1015.81 1016.57 1016.90 1017.44 1018.02 1018.39 1018.93 1019.40 1019.77 1020.32 1020.92 1021.22 1021.60 1021.99 1022.05 1022.33 1022.76 1022.95
1014.89 1015.31 1015.46 1015.56 1015.28 1014.36 1013.61 1013.17 1009.79 1008.08 1007.59 1007.50 1007.10 1006.57 1006.57 1006.26 1005.75 1005.83 1005.65 1005.77 1006.21 1006.80 1007.43 1008.20 1008.93 1009.64 1010.34 1010.68 1011.09 1011.96 1012.86 1013.60 1015.21 1016.66 1017.09 1017.89 1018.52 1019.05 1019.55 1019.55 1020.33 1021.00 1021.28 1021.90 1022.37 1022.42 1022.65 1023.14 1023.41
1014.74 1015.29 1015.83 1015.81 1015.53 1014.70 1013.69 1012.31 1008.86 1007.55 1007.22 1006.98 1006.81 1006.57 1006.35 1006.10 1005.61 1005.64 1005.40 1005.35 1005.54 1006.17 1006.88 1007.62 1008.37 1009.04 1009.80 1010.45 1011.11 1011.48 1012.25 1012.47 1014.19 1015.66 1016.84 1017.49 1018.32 1019.06 1019.60 1019.80 1020.34 1021.14 1021.43 1022.21 1022.71 1022.90 1023.24 1023.40 1023.99
1014.65 1015.08 1015.30 1015.51 1015.63 1015.24 1012.88 1011.03 1008.62 1007.07 1006.66 1006.47 1006.55 1006.40 1006.36 1005.96 1005.40 1005.24 1005.12 1005.34 1005.40 1005.82 1006.26 1006.68 1007.54 1008.39 1009.11 1009.91 1010.83 1011.53 1012.35 1012.69 1012.42 1014.16 1016.73 1017.19 1018.02 1018.99 1019.64 1020.18 1020.83 1021.34 1021.79 1022.26 1022.68 1023.37 1023.74 1023.77 1024.39
1014.13 1014.54 1015.29 1015.79 1015.66 1014.72 1012.47 1011.14 1008.90 1006.96 1006.46 1006.25 1006.55 1006.49 1006.30 1005.92 1005.41 1004.92 1005.01 1004.86 1005.25 1005.64 1006.04 1006.64 1007.11 1007.72 1008.53 1009.34 1010.21 1011.09 1011.86 1012.78 1013.20 1013.75 1015.55 1016.90 1017.91 1018.77 1019.67 1020.18 1021.02 1021.87 1022.18 1022.50 1023.15 1023.59 1024.38 1024.52 1025.26
1014.55 1014.62 1015.05 1015.41 1015.31 1014.57 1013.10 1009.95 1007.58 1006.89 1006.40 1006.60 1006.35 1006.27 1006.15 1005.71 1005.27 1004.63 1004.59 1004.76 1005.01 1005.47 1005.96 1006.33 1006.91 1007.48 1008.26 1008.95 1009.63 1010.61 1011.52 1012.48 1013.25 1013.54 1015.16 1016.43 1017.69 1018.59 1019.56 1020.17 1021.34 1021.96 1022.52 1022.83 1023.39 1023.79 1024.28 1024.73 1024.98
1014.10 1014.28 1014.67 1015.16 1015.14 1014.60 1013.49 1008.75 1006.51 1006.38 1006.45 1006.61 1006.29 1005.95 1005.47 1005.36 1004.95 1004.36 1004.18 1004.50 1004.76 1005.08 1005.69 1006.02 1006.60 1007.17 1007.74 1008.39 1009.29 1010.14 1011.08 1012.08 1012.81 1013.89 1014.99 1015.78 1017.22 1018.42 1019.06 1020.72 1021.57 1021.93 1022.59 1023.23 1023.53 1023.91 1024.32 1024.54 1024.80
Wind_Speed
6 4 1 3 1 1 3 5 2 4 3 3 7 3 7 2 6 4 2 5 14 21 20 22 22 21 20 19 18 16 17 19 17 16 16 16 15 15 13 13 12 12 11 11 11 11 11 12 13
4 2 3 3 2 3 4 4 9 9 2 11 5 5 4 10 2 1 7 7 18 20 19 21 23 21 21 19 18 20 18 18 17 16 16 16 15 15 14 13 12 12 11 11 11 11 12 13 13
1 4 3 3 4 8 5 5 7 10 12 6 5 2 4 3 1 4 3 14 19 19 18 18 21 22 21 19 20 20 20 18 17 16 16 16 15 15 14 13 12 12 12 12 12 12 13 13 14
2 3 3 2 10 4 5 5 4 12 7 4 5 11 5 2 2 3 9 18 18 18 18 18 22 22 21 21 20 21 20 19 18 17 16 16 16 15 15 14 13 13 13 13 13 13 14 13 15
3 2 2 2 4 4 3 6 5 7 5 8 8 6 6 1 2 7 14 17 19 17 16 16 22 22 21 21 19 20 20 19 18 17 17 16 16 16 15 15 14 14 14 14 14 15 14 14 15
3 2 2 3 5 3 6 7 3 3 3 10 4 12 6 1 4 10 15 16 17 18 14 17 20 20 20 21 19 19 20 19 18 17 17 17 16 16 15 16 15 14 14 15 15 14 13 14 15
4 2 2 3 5 5 5 4 3 3 5 6 7 6 5 4 2 9 15 16 17 16 12 15 17 16 19 19 19 19 19 18 18 18 17 16 15 16 17 16 15 15 15 16 15 14 14 15 15
3 2 2 4 3 6 4 3 3 4 8 7 4 4 5 5 4 6 12 14 15 13 11 13 12 14 13 15 17 17 18 17 16 16 15 14 12 13 14 13 13 14 15 16 15 14 16 17 16
2 1 3 4 3 4 2 2 3 4 8 8 5 5 4 16 10 8 12 14 12 9 10 10 12 11 13 14 13 15 17 16 15 14 13 11 8 9 9 8 10 12 13 15 14 15 16 15 14
2 2 5 5 3 5 5 5 9 9 12 11 16 13 6 13 11 13 17 17 17 15 12 11 13 12 13 10 14 13 12 10 10 11 11 7 8 6 7 8 10 13 12 14 15 15 13 10 7
2 5 3 8 9 8 9 10 6 11 15 14 13 15 13 14 10 15 18 18 18 13 10 12 13 14 13 10 9 6 6 7 7 11 9 9 7 6 5 5 4 6 8 6 8 8 6 8 7
3 8 9 8 5 6 12 5 10 13 19 19 16 16 12 14 11 13 13 14 15 14 14 13 13 13 12 9 9 9 7 7 7 8 11 8 5 6 5 4 5 5 5 8 7 5 7 8 9
5 6 7 10 12 10 12 16 14 14 19 20 16 15 14 14 14 13 14 12 11 14 14 14 13 13 12 12 9 9 9 8 8 8 8 7 7 6 6 5 5 4 5 6 6 7 7 8 8
3 6 14 11 14 8 10 10 7 13 16 15 15 15 11 11 14 12 13 16 10 15 14 14 14 14 12 10 11 9 8 8 7 7 7 9 7 7 6 6 5 5 4 5 6 6 7 6 7
4 8 8 3 2 5 4 7 9 17 8 13 12 10 9 8 11 15 14 16 18 15 15 16 14 14 13 12 10 8 8 8 7 7 9 9 9 9 9 6 5 5 4 8 6 6 6 6 6
4 2 5 4 3 3 3 10 7 11 8 12 9 7 8 7 9 11 6 14 17 16 16 16 12 15 14 12 9 8 7 7 6 6 7 9 9 9 8 7 6 6 5 5 6 6 6 6 6
3 5 4 9 3 4 3 16 15 11 7 12 13 12 9 8 8 9 9 9 14 15 13 7 11 14 13 10 8 8 9 8 7 6 6 9 9 9 8 6 6 7 5 5 5 4 5 6 6
5 5 5 8 4 4 15 23 22 15 12 17 16 13 11 9 13 6 9 11 13 11 12 13 10 6 9 8 7 5 5 5 6 6 6 8 6 9 7 6 6 6 6 5 4 6 5 5 7
3 4 10 14 11 7 11 18 23 18 11 14 14 12 11 11 9 7 8 11 10 12 17 15 16 12 7 4 5 4 5 5 5 6 9 9 8 8 8 6 6 5 6 7 8 7 9 5 7
5 5 9 11 3 5 10 21 14 7 5 7 12 11 11 9 8 5 7 10 12 14 17 18 19 20 15 3 2 1 5 2 3 5 8 9 9 9 9 9 7 7 6 8 7 6 4 3 2
4 5 4 7 8 3 11 7 6 4 4 5 6 8 6 11 11 6 8 12 11 15 16 18 21 21 22 10 3 4 4 4 4 5 5 7 9 9 9 8 7 7 5 6 5 5 5 4 3
4 5 6 5 5 4 5 7 6 5 11 2 4 5 7 9 7 6 8 10 12 15 14 16 16 17 21 18 8 6 5 5 3 5 5 7 8 8 8 8 7 6 5 5 5 4 3 4 6
7 2 4 1 2 3 1 0 10 4 5 7 6 3 5 7 7 7 9 11 11 14 16 15 17 18 17 22 19 10 4 3 4 6 9 9 7 8 8 8 8 7 5 5 6 7 6 3 3
4 4 3 2 1 1 2 2 8 4 4 8 7 4 5 8 7 7 8 9 7 10 12 14 18 18 18 18 18 22 15 9 7 9 8 7 7 7 9 9 8 7 7 6 5 7 8 7 7
1 4 4 5 4 4 2 1 11 9 8 5 10 12 7 7 9 4 9 13 12 14 16 14 17 16 18 18 15 17 17 17 15 11 8 10 8 7 8 10 10 7 8 7 6 7 8 7 8
4 4 4 4 3 5 2 5 8 4 6 8 6 7 6 6 7 5 10 13 14 16 17 16 17 17 17 17 17 15 16 12 12 11 9 8 7 7 9 9 9 8 9 7 6 6 7 8 7
3 3 2 1 2 1 3 7 10 3 5 4 7 6 7 7 6 6 6 9 12 13 17 19 19 17 18 19 15 15 13 15 19 18 10 8 9 7 9 8 9 8 8 8 8 6 7 9 7
4 5 1 2 3 5 4 5 7 7 9 8 9 7 7 6 8 4 5 9 10 11 12 14 17 19 19 19 17 14 15 14 15 17 16 13 11 11 11 11 9 8 7 8 8 7 7 8 5
2 2 2 2 4 3 4 6 7 8 9 6 9 8 7 8 8 6 5 6 10 9 11 13 14 15 16 16 16 16 15 15 14 17 16 14 14 12 10 10 9 9 9 9 9 9 9 9 8
3 5 5 4 3 3 2 12 7 7 6 4 9 11 8 8 8 7 5 5 7 11 11 13 14 16 16 16 17 17 16 15 14 13 15 18 15 12 12 11 10 9 10 9 9 8 7 8 7
Wind_Direction
344 349 40 42 148 350 242 229 307 287 214 22 306 249 228 256 178 222 355 165 150 156 162 163 167 169 154 151 153 155 135 127 132 133 129 126 122 119 115 112 108 103 100 97 95 93 96 99 95
342 5 44 97 116 230 239 241 261 251 318 313 284 267 261 255 220 127 146 176 161 157 161 164 167 170 152 155 150 145 133 135 136 135 132 128 125 122 118 113 110 108 106 104 101 102 107 102 102
6 31 84 130 163 217 221 221 250 316 331 303 296 291 281 254 240 210 219 160 160 161 162 166 170 152 153 153 144 141 139 141 139 137 135 131 128 124 119 116 113 111 111 111 111 113 111 106 107
24 19 56 161 215 233 214 257 8 328 333 345 346 290 282 211 264 194 160 159 162 163 165 169 156 155 155 141 145 145 144 143 142 139 137 135 131 126 123 120 118 117 118 119 119 118 111 111 111
37 55 78 273 258 263 263 288 327 309 286 303 331 278 274 51 271 144 160 162 162 164 168 170 154 156 147 141 149 148 147 146 144 143 140 137 132 129 128 126 126 122 122 123 126 117 115 113 112
54 80 89 250 260 264 280 249 249 264 276 297 324 317 270 335 165 163 160 166 161 161 169 158 155 153 138 148 150 150 149 148 146 144 142 137 135 132 131 132 128 125 125 126 124 118 116 117 112
102 89 215 245 265 271 236 199 206 304 293 283 319 281 295 354 275 166 164 161 161 163 159 155 157 142 141 152 152 150 150 149 148 146 142 138 136 136 133 130 128 127 129 129 128 123 121 121 114
100 96 206 236 245 277 267 328 344 2 303 302 225 245 307 340 162 193 166 159 161 159 157 153 148 139 146 155 150 152 146 147 145 141 134 132 135 132 128 126 128 127 131 132 128 122 124 117 112
99 23 252 253 205 246 262 319 287 273 274 279 262 258 275 304 187 191 161 167 159 156 158 148 144 131 149 156 151 146 143 142 133 124 113 111 120 118 122 127 131 124 126 123 125 119 122 110 102
111 224 240 221 228 254 273 274 293 294 285 287 295 264 316 339 190 187 177 182 177 168 155 150 145 140 151 151 151 149 143 140 141 140 133 126 126 128 126 115 105 109 112 115 121 116 112 110 110
168 230 238 261 254 260 278 280 262 273 272 270 272 278 306 316 236 203 199 191 183 164 152 156 147 149 153 150 145 143 137 137 140 142 140 137 131 127 120 115 106 110 102 109 114 113 110 118 113
263 244 251 275 271 285 281 285 264 245 263 262 253 264 278 286 255 225 205 193 184 166 157 153 152 152 148 150 154 150 146 149 147 152 144 139 134 133 126 125 125 123 124 121 121 117 118 117 115
221 265 271 273 282 271 268 258 257 263 250 256 265 269 270 271 267 216 213 185 178 165 159 152 157 159 157 158 154 153 154 158 152 152 151 144 140 138 132 130 129 125 130 125 123 123 123 121 124
258 275 284 284 275 259 260 268 174 249 253 261 255 259 261 255 255 237 206 189 178 170 160 150 163 159 159 157 163 158 156 154 155 156 158 148 143 144 138 137 133 129 132 124 126 130 125 118 127
276 302 302 262 229 278 209 274 225 248 281 266 250 254 267 251 245 240 210 207 177 176 170 160 160 154 161 162 164 159 159 158 161 162 158 154 149 155 143 140 137 133 130 122 119 116 115 115 111
316 282 340 269 324 280 165 280 265 269 244 265 259 263 261 266 250 243 244 179 195 168 171 161 164 161 162 161 158 159 153 162 162 165 162 159 155 152 145 143 140 144 141 137 128 130 124 123 127
6 292 280 310 210 239 221 282 269 265 257 257 264 272 264 262 252 249 200 176 210 170 136 145 160 165 155 148 145 152 159 166 166 164 167 164 157 155 148 144 147 148 140 142 136 123 130 132 121
278 307 278 261 275 268 279 267 276 264 241 246 258 260 259 249 250 230 225 185 145 134 128 112 71 66 140 134 129 131 153 158 159 166 168 164 158 154 145 138 141 144 136 132 127 127 106 125 125
227 242 265 274 280 277 260 276 289 294 245 247 252 257 259 261 256 202 224 196 187 160 143 140 122 88 25 132 143 155 168 155 164 169 163 161 158 153 144 135 138 146 145 139 127 119 119 113 125
220 269 276 284 225 278 313 296 294 298 251 228 241 246 239 253 274 242 188 180 187 168 159 147 142 138 114 310 90 142 151 153 164 171 160 160 161 153 149 150 152 152 146 150 149 154 129 98 192
232 219 248 261 324 269 324 290 326 290 290 272 257 253 259 246 250 232 192 176 174 172 162 157 147 149 144 141 105 87 87 102 150 175 159 160 158 158 153 154 149 148 154 161 155 153 129 133 67
274 206 248 277 7 306 24 293 307 325 320 255 295 266 271 268 246 237 203 183 180 180 162 155 156 152 144 142 137 162 190 181 171 166 151 145 155 151 144 140 141 139 131 129 132 135 134 132 131
235 196 259 276 231 356 344 321 272 326 317 317 326 312 303 295 251 233 209 201 178 167 166 166 158 160 165 163 152 145 159 150 143 134 143 147 141 143 140 139 133 128 120 111 120 115 113 108 128
348 321 46 60 131 343 230 114 284 278 240 311 304 301 298 311 299 237 204 185 182 163 160 164 169 171 170 168 164 156 160 150 157 156 154 154 146 143 141 132 127 126 119 106 99 98 92 92 83
118 35 325 348 2 243 164 222 253 275 272 255 295 307 316 304 295 251 182 187 189 178 169 171 175 174 174 169 171 169 168 153 160 165 156 152 146 144 143 132 133 126 117 110 105 105 100 100 97
173 157 168 266 275 292 120 234 255 232 283 275 277 282 286 310 307 285 224 185 190 190 179 174 175 176 176 180 186 178 169 154 151 146 151 143 140 139 141 128 123 122 110 110 94 92 100 102 100
159 189 190 282 31 329 250 272 294 292 296 272 312 349 324 316 311 318 229 198 187 190 189 179 177 181 174 175 173 170 174 168 154 137 146 139 129 129 122 112 112 107 112 113 115 115 110 105 102
177 157 76 22 288 274 274 272 248 287 288 319 331 328 318 306 305 275 256 224 198 192 187 187 184 185 182 176 174 173 164 155 151 137 147 140 128 126 122 113 113 110 101 110 115 109 113 108 115
147 216 156 156 181 230 298 248 227 247 265 296 294 287 282 285 286 267 223 230 207 182 183 179 184 179 178 177 173 171 163 158 157 150 148 141 137 130 128 121 134 141 142 131 130 134 137 128 121
178 201 156 151 233 233 212 267 244 255 302 294 282 277 267 260 269 266 217 199 200 192 186 177 180 180 180 174 171 171 164 161 157 157 152 146 141 139 132 149 147 134 133 141 139 136 139 130 120